Regional Weather Roundup
Issued by NWS

Home | Current Version | Previous Version | Text Only | Print | Product List | Glossary Off
Versions: 1 2 3 4 5 6 7 8 9 10 11 12 13 14 15 16 17 18 19 20 21 22 23 24 25 26 27 28 29 30 31 32 33 34 35 36 37 38 39 40 41 42 43 44 45 46 47 48 49 50

950
ASUS45 KCYS 280710
RWRWY

WYOMING REGIONAL WEATHER ROUNDUP
NATIONAL WEATHER SERVICE CHEYENNE WY
1200 AM MST TUE FEB 28 2017

NOTE:  "FAIR" INDICATES FEW OR NO CLOUDS BELOW 12,000 FEET
WITH NO SIGNIFICANT WEATHER AND/OR OBSTRUCTIONS TO VISIBILITY.

WYZ001-280800-
YELLOWSTONE NATIONAL PARK

CITY           SKY/WX    TMP DP  RH WIND       PRES   REMARKS
LK YELLOWSTONE   N/A      1  -1  91 NW3       29.62S
W YELLOWSTONE  NOT AVBL

$$
WYZ002>013-054>058-071-098>099-280800-
NORTHERN WYOMING

CITY           SKY/WX    TMP DP  RH WIND       PRES   REMARKS
JACKSON        CLOUDY    16  10  79 S13       29.70S WCI   2
CODY           FAIR      26   4  38 W13G26    29.63R WCI  15
GREYBULL       FAIR      27  20  75 W9        29.64R WCI  18
WORLAND        CLOUDY    25  20  81 S7        29.65R WCI  17
SHERIDAN       LGT SNOW  24  22  91 CALM      29.64R FOG
BUFFALO        CLOUDY    22  16  78 NW14      29.59R WCI   9
GILLETTE       CLOUDY    24  20  84 N6        29.56F WCI  17
HULETT         CLOUDY    27  21  80 NE3       29.61F
NEWCASTLE      FAIR      27  21  80 SE13      29.63S WCI  16

$$
WYZ014>020-022>026-101>103-280800-
CENTRAL WYOMING

CITY           SKY/WX    TMP DP  RH WIND       PRES   REMARKS
BIG PINEY      FAIR      -7 -10  87 E5        29.71S WCI -18
PINEDALE       FAIR      -6  -9  84 W3        29.71F
DUBOIS         FAIR       9   0  66 NW17      29.62F WCI -10
LANDER         FAIR      17  -4  39 S5        29.66S WCI  10
RIVERTON       FAIR      15   2  56 NW15      29.66S WCI   0
CASPER         FAIR      22   9  57 SW18      29.65R WCI   7
DOUGLAS        FAIR      27  14  58 SW18      29.64S WCI  14

$$
WYZ021-027>030-104>119-280800-
SOUTHERN WYOMING

CITY           SKY/WX    TMP DP  RH WIND       PRES   REMARKS
EVANSTON       FAIR      11   7  84 SW6       29.73  WCI   1
FORT BRIDGER   FAIR      12  11  96 SW9       29.76S WCI   0
ROCK SPRINGS   FAIR      10   5  80 SW6       29.74S WCI   0
DIXON            N/A     20  17  90 SW6       29.79F WCI  12
RAWLINS        CLOUDY    17   7  64 W18       29.72R WCI   1
SARATOGA       LGT SNOW  19  19 100 SW10G18   29.74R WCI   8
LARAMIE        MOCLDY    15  10  80 SE6       29.68R WCI   6
CHEYENNE       FAIR      25  12  58 NW21G30   29.68R WCI  11
TORRINGTON     FAIR      28  19  69 W6        29.69R WCI  22
PINE BLUFFS    PTSUNNY   30  18  59 W21G32    29.69R WCI  17

$$




USA.gov is the U.S. government's official web portal to all federal, state and local government web resources and services.